When you browse on this site, cookies collect data to enhance your experience and personalize the content and advertising you see.
Visit our Privacy Policy to learn more. By continuing to use the site, you agree to this use of cookies and data.
  • In Hungary
  • List of Countries
  • For 7 days
  • Water Temperature
  • Weather Map
  • News
  • Weather Widgets
  • user-avatar
    Login

    Hourly Weather Maloe Agishevo

    Today, 29 January, Wednesday

    Time Temperature Precipitation Wind Pressure Humidity
    00:00 -5°C° 0.2 mm 3 mps 747 mmHg 96%
    01:00 -4°C° 0.1 mm 3 mps 747 mmHg 96%
    02:00 -4°C° 0.1 mm 3 mps 747 mmHg 96%
    03:00 -4°C° 0 mm 3 mps 747 mmHg 95%
    04:00 -4°C° 0 mm 3 mps 747 mmHg 95%
    05:00 -4°C° 0 mm 3 mps 746 mmHg 96%
    06:00 -5°C° 0 mm 3 mps 746 mmHg 96%
    07:00 -5°C° 0 mm 3 mps 746 mmHg 96%
    08:00 -5°C° 0 mm 3 mps 746 mmHg 96%
    09:00 -5°C° 0 mm 3 mps 746 mmHg 96%
    10:00 -4°C° 0 mm 3 mps 746 mmHg 96%
    11:00 -4°C° 0 mm 3 mps 746 mmHg 96%
    12:00 -2°C° 0 mm 3 mps 746 mmHg 95%
    13:00 -2°C° 0 mm 3 mps 745 mmHg 96%
    14:00 -1°C° 0 mm 2 mps 745 mmHg 97%
    15:00 -1°C° 0 mm 2 mps 745 mmHg 98%
    16:00 -1°C° 0.2 mm 2 mps 745 mmHg 98%
    17:00 -1°C° 0.2 mm 2 mps 745 mmHg 98%
    18:00 -1°C° 0.2 mm 3 mps 744 mmHg 98%
    19:00 -1°C° 0.1 mm 3 mps 744 mmHg 98%
    20:00 0°C° 0.1 mm 3 mps 744 mmHg 98%
    21:00 -1°C° 0.1 mm 4 mps 743 mmHg 98%
    22:00 -2°C° 0.1 mm 4 mps 743 mmHg 97%
    23:00 -2°C° 0.1 mm 4 mps 742 mmHg 97%

    Tomorrow, 30 January, Thursday

    Time Temperature Precipitation Wind Pressure Humidity
    00:00 -2°C° 0.1 mm 5 mps 742 mmHg 97%
    01:00 -3°C° 0.2 mm 4 mps 742 mmHg 97%
    02:00 -3°C° 0.2 mm 4 mps 741 mmHg 97%
    03:00 -3°C° 0.2 mm 4 mps 741 mmHg 96%
    04:00 -3°C° 0.2 mm 4 mps 741 mmHg 97%
    05:00 -3°C° 0.2 mm 4 mps 740 mmHg 97%
    06:00 -3°C° 0.2 mm 4 mps 740 mmHg 97%
    07:00 -2°C° 0.1 mm 4 mps 740 mmHg 97%
    08:00 -2°C° 0.1 mm 4 mps 740 mmHg 98%
    09:00 -1°C° 0.1 mm 4 mps 740 mmHg 98%
    10:00 -1°C° 0.2 mm 4 mps 739 mmHg 99%
    11:00 0°C° 0.2 mm 4 mps 739 mmHg 99%
    12:00 0°C° 0.2 mm 4 mps 739 mmHg 99%
    13:00 0°C° 0.1 mm 4 mps 739 mmHg 98%
    14:00 -1°C° 0.1 mm 4 mps 739 mmHg 98%
    15:00 0°C° 0.1 mm 3 mps 739 mmHg 97%
    16:00 -1°C° 0 mm 3 mps 739 mmHg 96%
    17:00 -2°C° 0 mm 3 mps 740 mmHg 95%
    18:00 -2°C° 0 mm 3 mps 740 mmHg 94%
    19:00 -2°C° 0 mm 3 mps 740 mmHg 92%
    20:00 -2°C° 0 mm 3 mps 740 mmHg 90%
    21:00 -1°C° 0 mm 3 mps 740 mmHg 88%
    22:00 -2°C° 0 mm 4 mps 740 mmHg 88%
    23:00 -2°C° 0 mm 5 mps 740 mmHg 89%

    Day after tomorrow, 31 January, Friday

    Time Temperature Precipitation Wind Pressure Humidity
    00:00 -2°C° 0 mm 5 mps 739 mmHg 89%
    01:00 -4°C° 0 mm 6 mps 739 mmHg 90%
    02:00 -4°C° 0 mm 6 mps 739 mmHg 90%
    03:00 -4°C° 0 mm 6 mps 739 mmHg 91%
    04:00 -4°C° 0.1 mm 6 mps 738 mmHg 92%
    05:00 -4°C° 0.1 mm 7 mps 738 mmHg 92%
    06:00 -4°C° 0.1 mm 7 mps 737 mmHg 93%
    07:00 -4°C° 0.4 mm 7 mps 737 mmHg 94%
    08:00 -4°C° 0.4 mm 7 mps 737 mmHg 94%
    09:00 -5°C° 0.4 mm 8 mps 737 mmHg 94%
    10:00 -3°C° 0.3 mm 7 mps 736 mmHg 95%
    11:00 -3°C° 0.3 mm 7 mps 736 mmHg 96%
    12:00 -3°C° 0.3 mm 7 mps 736 mmHg 96%
    13:00 -3°C° 0.1 mm 7 mps 736 mmHg 93%
    14:00 -3°C° 0.1 mm 7 mps 737 mmHg 89%
    15:00 -3°C° 0.1 mm 7 mps 737 mmHg 86%
    16:00 -4°C° 0 mm 6 mps 737 mmHg 87%
    17:00 -4°C° 0 mm 5 mps 738 mmHg 87%
    18:00 -4°C° 0 mm 5 mps 738 mmHg 88%
    19:00 -3°C° 0.1 mm 4 mps 738 mmHg 90%
    20:00 -3°C° 0.1 mm 4 mps 739 mmHg 91%
    21:00 -2°C° 0.1 mm 3 mps 739 mmHg 93%
    22:00 -4°C° 0.1 mm 3 mps 740 mmHg 93%
    23:00 -4°C° 0.1 mm 3 mps 740 mmHg 94%

    1 February, Saturday

    Time Temperature Precipitation Wind Pressure Humidity
    00:00 -5°C° 0.1 mm 3 mps 740 mmHg 95%
    01:00 -5°C° 0.1 mm 3 mps 740 mmHg 95%
    02:00 -4°C° 0.1 mm 3 mps 741 mmHg 95%
    03:00 -4°C° 0.1 mm 3 mps 741 mmHg 96%
    04:00 -4°C° 0.1 mm 3 mps 741 mmHg 96%
    05:00 -4°C° 0.1 mm 2 mps 741 mmHg 96%
    06:00 -4°C° 0.1 mm 2 mps 741 mmHg 96%
    07:00 -4°C° 0 mm 2 mps 742 mmHg 96%
    08:00 -4°C° 0 mm 2 mps 742 mmHg 95%
    09:00 -4°C° 0 mm 2 mps 743 mmHg 95%
    10:00 -2°C° 0 mm 1 mps 743 mmHg 94%
    11:00 -1°C° 0 mm 1 mps 743 mmHg 93%
    12:00 0°C° 0 mm 1 mps 743 mmHg 92%
    13:00 0°C° 0 mm 1 mps 743 mmHg 92%
    14:00 0°C° 0 mm 1 mps 743 mmHg 92%
    15:00 0°C° 0 mm 1 mps 743 mmHg 92%
    16:00 -1°C° 0 mm 1 mps 744 mmHg 93%
    17:00 -2°C° 0 mm 1 mps 744 mmHg 93%
    18:00 -2°C° 0 mm 1 mps 744 mmHg 93%
    19:00 -2°C° 0 mm 1 mps 745 mmHg 93%
    20:00 -2°C° 0 mm 1 mps 745 mmHg 93%
    21:00 -2°C° 0 mm 1 mps 745 mmHg 93%
    22:00 -3°C° 0 mm 1 mps 745 mmHg 93%
    23:00 -3°C° 0 mm 1 mps 745 mmHg 94%

    2 February, Sunday

    Time Temperature Precipitation Wind Pressure Humidity
    00:00 -3°C° 0 mm 1 mps 745 mmHg 94%
    01:00 -3°C° 0 mm 1 mps 745 mmHg 94%
    02:00 -3°C° 0 mm 1 mps 746 mmHg 94%
    03:00 -3°C° 0 mm 1 mps 746 mmHg 95%
    04:00 -2°C° 0 mm 1 mps 746 mmHg 95%
    05:00 -2°C° 0 mm 1 mps 746 mmHg 95%
    06:00 -3°C° 0 mm 2 mps 746 mmHg 95%
    07:00 -3°C° 0 mm 2 mps 746 mmHg 94%
    08:00 -3°C° 0 mm 2 mps 746 mmHg 94%
    09:00 -3°C° 0 mm 2 mps 746 mmHg 93%
    10:00 -2°C° 0 mm 3 mps 746 mmHg 92%
    11:00 -3°C° 0 mm 4 mps 746 mmHg 90%
    12:00 -2°C° 0 mm 4 mps 746 mmHg 89%
    13:00 -2°C° 0 mm 4 mps 745 mmHg 88%
    14:00 -2°C° 0 mm 5 mps 745 mmHg 88%
    15:00 -2°C° 0 mm 5 mps 745 mmHg 87%
    16:00 -4°C° 0 mm 5 mps 745 mmHg 87%
    17:00 -4°C° 0 mm 5 mps 744 mmHg 87%
    18:00 -5°C° 0 mm 5 mps 744 mmHg 87%
    19:00 -4°C° 0 mm 5 mps 743 mmHg 88%
    20:00 -4°C° 0 mm 6 mps 743 mmHg 90%
    21:00 -4°C° 0 mm 6 mps 742 mmHg 91%
    22:00 -4°C° 0.4 mm 6 mps 742 mmHg 93%
    23:00 -4°C° 0.4 mm 7 mps 741 mmHg 95%

    3 February, Monday

    Time Temperature Precipitation Wind Pressure Humidity
    00:00 -3°C° 0.4 mm 7 mps 740 mmHg 97%
    01:00 -3°C° 0.5 mm 7 mps 739 mmHg 97%
    02:00 -2°C° 0.5 mm 7 mps 739 mmHg 97%
    03:00 -2°C° 0.5 mm 7 mps 738 mmHg 98%
    04:00 -2°C° 0.6 mm 7 mps 737 mmHg 98%
    05:00 -1°C° 0.6 mm 6 mps 737 mmHg 98%
    06:00 -1°C° 0.6 mm 6 mps 736 mmHg 98%
    07:00 0°C° 0.5 mm 5 mps 736 mmHg 98%
    08:00 0°C° 0.5 mm 5 mps 736 mmHg 98%
    09:00 -1°C° 0.5 mm 4 mps 736 mmHg 98%
    10:00 -1°C° 0.1 mm 4 mps 736 mmHg 98%
    11:00 -1°C° 0.1 mm 4 mps 736 mmHg 99%
    12:00 -1°C° 0.1 mm 4 mps 736 mmHg 99%
    13:00 -1°C° 0 mm 4 mps 736 mmHg 99%
    14:00 -1°C° 0 mm 4 mps 735 mmHg 99%
    15:00 -1°C° 0 mm 4 mps 735 mmHg 99%
    16:00 -1°C° 0 mm 4 mps 735 mmHg 98%
    17:00 -1°C° 0 mm 4 mps 735 mmHg 98%
    18:00 -1°C° 0 mm 4 mps 736 mmHg 97%
    19:00 -1°C° 0.2 mm 4 mps 735 mmHg 97%
    20:00 0°C° 0.2 mm 3 mps 735 mmHg 98%
    21:00 0°C° 0.2 mm 3 mps 735 mmHg 98%
    22:00 -1°C° 0.3 mm 4 mps 735 mmHg 96%
    23:00 -2°C° 0.3 mm 4 mps 735 mmHg 94%
    Show more